This demonstration page uses our WeatherBlox Daily Observations layout. Learn more.

Left ArrowRight Arrow

39.08367, -84.50855

Hourly Observations for January 6, 2018

Temp ( °F °C ) Dew Point ( °F °C ) Humidity (%) Winds ( mph kmh ) Pressure ( in mb ) Visibility ( mi km ) Precip ( " mm )
12:53 am 00:53 Clear 6 -14.4 -5 -20.6 60 60 NW 5 7 30.54 1034 10 16.0934 0 0
1:53 am 01:53 Clear 4 -15.6 -5 -20.6 66 66 NW 3 6 30.54 1034 10 16.0934 0 0
2:53 am 02:53 Clear 5 -15 -5 -20.6 63 63 Calm 30.55 1035 10 16.0934 0 0
3:53 am 03:53 Clear 4 -15.6 -5 -20.6 66 66 Calm 30.57 1035 10 16.0934 0 0
4:53 am 04:53 Clear 2 -16.7 -5 -20.6 72 72 Calm 30.58 1036 10 16.0934 0 0
5:53 am 05:53 Clear 0 -17.8 -6 -21.1 76 76 Calm 30.6 1036 10 16.0934 0 0
6:53 am 06:53 Clear 0 -17.8 -5 -20.6 79 79 Calm 30.61 1037 10 16.0934 0 0
7:53 am 07:53 Clear -1 -18.3 -6 -21.1 79 79 Calm 30.63 1037 10 16.0934 0 0
8:53 am 08:53 Sunny 1 -17.2 -2 -18.9 87 87 S 3 6 30.64 1038 10 16.0934 0 0
9:53 am 09:53 Sunny 6 -14.4 0 -17.8 76 76 SSE 3 6 30.66 1038 10 16.0934 0 0
10:53 am 10:53 Sunny 9 -12.8 1 -17.2 70 70 SSE 3 6 30.67 1039 10 16.0934 0 0
11:53 am 11:53 Sunny 14 -10 3 -16.1 61 61 WSW 5 7 30.67 1039 10 16.0934 0 0
12:53 pm 12:53 Sunny 17 -8.3 4 -15.6 56 56 W 6 9 30.65 1038 10 16.0934 0 0
1:53 pm 13:53 Partly Cloudy 20 -6.7 4 -15.6 50 50 VRB 5 7 30.64 1038 10 16.0934 0 0
2:53 pm 14:53 Partly Cloudy 21 -6.1 3 -16.1 45 45 W 9 15 30.63 1037 10 16.0934 0 0
3:53 pm 15:53 Mostly Sunny 21 -6.1 -1 -18.3 38 38 Calm 30.64 1038 10 16.0934 0 0
4:53 pm 16:53 Mostly Sunny 19 -7.2 0 -17.8 43 43 N 5 7 30.65 1038 10 16.0934 0 0
5:53 pm 17:53 Clear 16 -8.9 -1 -18.3 47 47 Calm 30.65 1038 10 16.0934 0 0
6:53 pm 18:53 Clear 11 -11.7 1 -17.2 64 64 Calm 30.64 1038 10 16.0934 0 0
7:53 pm 19:53 Clear 10 -12.2 1 -17.2 67 67 N 3 6 30.65 1038 10 16.0934 0 0
8:53 pm 20:53 Clear 7 -13.9 1 -17.2 76 76 N 5 7 30.63 1037 10 16.0934 0 0
9:53 pm 21:53 Clear 6 -14.4 1 -17.2 79 79 Calm 30.64 1038 10 16.0934 0 0
10:53 pm 22:53 Clear 6 -14.4 2 -16.7 83 83 Calm 30.64 1038 10 16.0934 0 0
11:53 pm 23:53 Clear 4 -15.6 1 -17.2 88 88 Calm 30.63 1037 10 16.0934 0 0

Powered by AerisWeather